7 * 24
多渠道服务支持
JILIN-1 GAOFEN 3G 是吉林一号高分系列的光学遥感卫星,由中国长光卫星技术有限公司研制。该卫星具备高分辨率、宽覆盖和快速响应能力,主要用于提供高精度的地球观测数据,服务于农业、林业、城市规划、灾害监测等多个领域。其先进的成像技术和稳定的运行性能,提升了我国商业遥感数据的获取能力和应用水平。
数据来源 | 国际轨道数据 |
星历时间: | 2025-10-18T08:00:55+0800 6小时前 查看轨道信息 |
半长轴: | 6810.596km |
偏心率: | 0.0016901 |
轨道倾角: | 97.273° |
近地点辐角 | 218.986° |
升交点赤经 | 339.031° |
平近点角 | 141.018° |
近地点: | 420.95km |
远地点: | 443.972km |
周期: | 93.226分钟 |
每日圈数: | 15.446323 |